Rifle, CO

8:17 AM MDT on August 19, 2017 (GMT -0600)
Garfield County Regional

Weather History for KRIL - December, 2011

Change the Weather History Date:

Tuesday, December 13, 2011

  Actual Average Record
Temperature  
Mean Temperature 35 °F 25 °F  
Max Temperature 44 °F 36 °F 60 °F (1934)
Min Temperature 26 °F 15 °F -18 °F (1932)
Degree Days  
Heating Degree Days 30 40  
Month to date heating degree days 494  
Since 1 July heating degree days 2020  
Cooling Degree Days 0 0  
Month to date cooling degree days 0  
Year to date cooling degree days 541  
Moisture  
Dew Point 23 °F    
Average Humidity 71    
Maximum Humidity 89    
Minimum Humidity 47    
Precipitation  
Precipitation 0.00 in 0.02 in 0.40 in (1990)
Month to date precipitation 0.37  
Year to date precipitation 13.83  
Sea Level Pressure  
Sea Level Pressure 29.95 in    
Wind  
Wind Speed 4 mph (SSE)    
Max Wind Speed 14 mph    
Max Gust Speed -    
Visibility 10 miles    
Events      
T = Trace of Precipitation, MM = Missing Value Source: NWS Daily Summary

Daily Weather History Graph

Daily Weather History Graph

Search for Another Location

Airport or City:

Trip Planner

Search our weather history database for the weather conditions in past years. The results will help you decide how hot, cold, wet, or windy it might be!

Date:

Astronomy

Dec. 13, 2011 Rise Set
Actual Time 7:22 AM MST 4:47 PM MST
Civil Twilight 6:52 AM MST 5:17 PM MST
Nautical Twilight 6:18 AM MST 5:51 PM MST
Astronomical Twilight 5:45 AM MST 6:24 PM MST
Moon 8:04 PM MST (12/13) 9:35 AM MST (12/13)
Length of Visible Light 10h 25m
Length of Day
9h 24m
Waning Gibbous, 90% of the Moon is Illuminated
Dec 13
Waning Gibbous
Dec 17
Last Quarter
Dec 24
New
Dec 31
First Quarter
Jan 9
Full

Hourly Weather History & Observations

Time (MST) Temp. Windchill Dew Point Humidity Pressure Visibility Wind Dir Wind Speed Gust Speed Precip Events Conditions
12:53 AM 30.0 °F 24.1 °F 17.1 °F 59% 29.97 in 10.0 mi ESE 5.8 mph - N/A   Overcast
1:53 AM 28.9 °F 25.2 °F 19.0 °F 67% 29.97 in 10.0 mi SSW 3.5 mph - N/A   Overcast
2:53 AM 27.0 °F 21.6 °F 18.0 °F 69% 29.98 in 10.0 mi SE 4.6 mph - N/A   Overcast
3:53 AM 26.1 °F 21.9 °F 16.0 °F 66% 29.99 in 10.0 mi East 3.5 mph - N/A   Scattered Clouds
4:53 AM 27.0 °F 21.6 °F 18.0 °F 69% 30.01 in 10.0 mi SE 4.6 mph - N/A   Overcast
5:53 AM 26.1 °F 21.9 °F 18.0 °F 71% 30.05 in 10.0 mi SSW 3.5 mph - N/A   Mostly Cloudy
6:53 AM 27.0 °F 23.0 °F 18.0 °F 69% 30.05 in 10.0 mi South 3.5 mph - N/A   Overcast
7:53 AM 27.0 °F 23.0 °F 19.0 °F 72% 30.05 in 10.0 mi East 3.5 mph - N/A   Mostly Cloudy
8:53 AM 32.0 °F - 19.9 °F 61% 30.04 in 10.0 mi Calm Calm - N/A   Overcast
9:53 AM 33.1 °F - 19.9 °F 59% 30.02 in 10.0 mi Calm Calm - N/A   Overcast
10:53 AM 37.0 °F - 21.0 °F 52% 29.99 in 10.0 mi Calm Calm - N/A   Overcast
12:53 PM 44.1 °F 37.4 °F 25.0 °F 47% 29.90 in 10.0 mi West 13.8 mph - N/A   Scattered Clouds
1:53 PM 43.0 °F 36.8 °F 30.0 °F 60% 29.88 in 10.0 mi West 11.5 mph - N/A   Scattered Clouds
2:53 PM 41.0 °F 36.4 °F 30.9 °F 67% 29.88 in 10.0 mi West 6.9 mph - N/A   Mostly Cloudy
3:53 PM 39.9 °F 35.8 °F 30.9 °F 70% 29.89 in 10.0 mi NW 5.8 mph - N/A   Mostly Cloudy
4:53 PM 37.0 °F - 30.0 °F 76% 29.90 in 10.0 mi Calm Calm - N/A   Clear
5:53 PM 36.0 °F - 30.0 °F 79% 29.91 in 10.0 mi Calm Calm - N/A   Overcast
6:53 PM 28.9 °F 23.9 °F 24.1 °F 82% 29.94 in 10.0 mi SE 4.6 mph - N/A   Scattered Clouds
7:53 PM 28.9 °F 25.2 °F 24.1 °F 82% 29.94 in 10.0 mi South 3.5 mph - N/A   Partly Cloudy
8:53 PM 27.0 °F 23.0 °F 24.1 °F 89% 29.93 in 10.0 mi ESE 3.5 mph - N/A   Overcast
9:53 PM 30.0 °F - 26.1 °F 85% 29.89 in 10.0 mi Calm Calm - N/A   Overcast
10:53 PM 28.9 °F - 25.0 °F 85% 29.89 in 10.0 mi Calm Calm - N/A   Overcast
11:22 PM 28.4 °F - 24.8 °F 86% 29.86 in 10.0 mi Calm Calm - N/A   Overcast
11:53 PM 30.0 °F - 25.0 °F 82% 29.86 in 10.0 mi Calm Calm - N/A   Overcast